SCP
0 0 0 0 -0 -0 -0 0 -0 -0 -0 -0 -0 -0 -0 -0 -0 -0 -0 -0 -0 -0 -0 -0 -0 -0 -0 -0 -0 -0 -0 -0 -0 -0 -0 -0 -0 -0 -0 -0 -0 0 -0
0 0 0 0 0 -0 -0 -0 -0 -0 -0 -0 -0 -0 -0 -0 -0 -0 -0 -0 -0 -0 -0 -0 -0 -0 -0 -0 -0 -0 -0 -0 -0 -0 -0 -0 -0 -0 -0 -0 -0 0 -0
-0 0 0 0 -0 -0 -0 -0 -0 -0 -0 -0 -0 -0 -0 -0 -0 -0 -0 -0 -0 -0 -0 -0 -0 -0 -0 -0 -0 -0 -0 -0 -0 -0 -0 0 0 -0 -0 -0 -0 -0 -0
-0 -0 0 0 -0 -0 -0 -0 -0 -0 -0 -0 -0 -0 -0 -0 -0 -0 -0 -0 -0 -0 -0 -0 -0 -0 -0 -0 -0 -0 -0 -0 -0 -0 0 0 0 -0 -0 -0 -0 -0 -0
-0 -0 -0 -0 -0 -0 -0 -0 -0 -0 -0 -0 -0 -0 -0 -0 -0 -0 -0 -0 -0 -0 -0 -0 -0 -0 -0 -0 -0 -0 -0 -0 -0 0 0 0 0 0 0 0 0 0 0
-0 -0 0 -0 -0 -0 -0 -0 -0 -0 -0 -0 -0 -0 -0 -0 -0 -0 -0 -0 -0 -0 -0 -0 -0 -0 -0 -0 0 -0 0 -0 0 0 0 0 0 0 0 0 0 0 0
-0 0 -0 -0 -0 -0 -0 -0 -0 -0 -0 -0 -0 -0 -0 -0 -0 -0 -0 -0 -0 -0 -0 -0 -0 -0 -0 0 0 0 0 0 0 0 0 0 0 0 0 0 0 0 0
-0 0 -0 0 -0 0 0 -0 -0 0 0 0 -0 0 -0 -0 -0 -0 -0 -0 -0 -0 -0 -0 -0 0 0 0 0 0 0 0 0 0 0 0 0 0 0 0 0 0 0
-0 -0 -0 -0 -0 -0 -0 -0 -0 -0 -0 -0 0 -0 0 -0 -0 -0 0 -0 -0 -0 -0 -0 0 0 0 0 0 0 0 0 0 0 0 0 0 0 0 0 0 0 0
0 -0 -0 -0 -0 0 0 -0 -0 -0 -0 -0 -0 0 0 0 0 0 0 0 -0 -0 -0 -0 0 0 0 0 0 0 0 0 0 0 0 0 0 0 0 0 0 0 0
0 -0 -0 -0 0 0 0 0 -0 -0 -0 -0 -0 -0 -0 0 0 0 0 -0 -0 -0 -0 0 0 0 0 0 0 0 0 0 0 0 0 0 0 0 0 0 0 0 0
0 0 0 -0 0 0 0 0 0 -0 -0 -0 -0 -0 -0 0 0 0 0 0 0 0 0 0 0 0 0 0 0 0 0 0 0 0 0 0 0 0 0 0 0 0 0
0 0 0 -0 0 -0 -0 -0 -0 -0 -0 -0 -0 -0 0 0 0 0 0 0 0 0 0 0 0 0 0 0 0 0 0 0 0 0 0 0 0 0 0 0 0 0 0
0 0 0 -0 0 0 -0 -0 -0 -0 -0 -0 -0 0 0 0 0 0 0 0 0 0 0 0 0 0 0 0 0 0 0 0 0 0 0 0 0 0 0 0 0 0 0
-0 -0 -0 0 0 -0 -0 0 -0 -0 0 -0 -0 -0 0 0 0 0 0 0 0 0 0 0 0 0 0 0 0 0 0 0 0 0 0 0 0 0 0 0 0 0 0
-0 -0 -0 -0 0 -0 -0 0 0 -0 -0 -0 -0 0 0 0 0 0 0 0 0 0 0 0 0 0 0 0 0 0 0 0 0 0 0 0 0 0 0 0 0 0 0
-0 -0 -0 -0 -0 -0 -0 -0 0 0 0 0 0 0 0 0 0 0 0 0 0 0 0 0 0 0 0 0 0 0 0 0 0 0 0 0 0 0 0 0 0 0 0
-0 -0 -0 -0 -0 -0 -0 0 0 0 0 0 0 0 0 0 0 0 0 0 0 0 0 0 0 0 0 0 0 0 0 0 0 0 0 0 0 0 0 0 0 0 0
0 0 0 0 -0 0 0 0 0 0 0 0 0 0 0 0 0 0 0 0 0 0 0 0 0 0 0 0 0 0 0 0 0 0 0 0 0 0 0 0 0 0 0
0 0 0 0 0 0 0 0 0 0 0 0 0 0 0 0 0 0 0 0 0 0 0 0 0 0 0 0 0 0 0 0 0 0 0 0 0 0 0 0 0 0 0
0 0 0 0 0 0 0 0 0 0 0 0 0 0 0 0 0 0 0 0 0 0 0 0 0 0 0 0 0 0 0 0 0 0 0 0 0 0 0 0 0 0 0
0 0 0 0 0 0 0 0 0 0 0 0 0 0 0 0 0 0 0 0 0 0 0 0 0 0 0 0 0 0 0 0 0 0 0 0 0 0 0 0 0 0 0
0 0 0 0 0 0 0 0 0 0 0 0 0 0 0 0 0 0 0 0 0 0 0 0 0 0 0 0 0 0 0 0 0 0 0 0 0 0 0 0 0 0 0
0 0 0 0 0 0 0 0 0 0 0 0 0 0 0 0 0 0 0 0 0 0 0 0 0 0 0 0 0 0 0 0 0 0 0 0 0 0 0 0 0 0 0
0 0 0 0 0 0 0 0 0 0 0 0 0 0 0 0 0 0 0 0 0 0 0 0 0 0 0 0 0 0 0 0 0 0 0 0 0 0 0 0 0 0 0
0 0 0 0 0 0 0 0 0 0 0 0 0 0 0 0 0 0 0 0 0 0 0 0 0 0 0 0 0 0 0 0 0 0 0 0 0 0 0 0 0 0 0
Wind_Speed_500mb
25 27 26 27 26 21 22 19 17 18 23 20 22 23 22 21 22 20 20 21 20 19 17 20 22 24 26 26 25 26 24 23 23 24 23 15 14 14 11 12 16 23 23
37 31 28 27 26 25 24 22 19 22 24 22 23 24 29 31 26 21 23 20 14 12 24 23 29 34 40 35 32 30 28 27 25 28 23 22 23 26 18 25 28 29 25
33 32 29 27 27 26 23 24 24 25 23 22 25 29 33 34 35 33 32 35 34 36 37 34 32 35 37 36 37 29 25 21 20 27 28 24 27 24 26 32 31 33 32
30 34 30 27 29 31 27 26 25 24 22 20 26 34 36 33 29 32 33 34 38 35 33 32 33 32 33 30 30 26 21 17 21 16 20 21 21 22 25 23 22 22 23
33 34 31 31 30 29 28 28 22 19 21 19 26 30 38 33 26 33 31 31 36 26 30 30 26 25 22 25 29 23 18 18 14 11 20 24 16 23 20 20 25 25 23
39 31 30 26 28 32 29 28 20 17 20 21 25 27 31 29 31 27 27 33 31 24 25 24 23 24 24 23 25 15 17 13 17 15 16 22 23 19 23 21 17 17 23
33 30 29 28 30 31 29 29 18 15 19 25 23 26 25 25 26 25 31 32 23 17 22 22 21 20 22 20 17 12 7 11 18 11 13 18 12 13 17 18 14 17 17
31 35 35 34 33 33 31 26 19 19 21 25 23 24 24 23 24 29 26 24 17 15 17 19 19 18 17 17 19 15 9 13 19 18 8 7 8 11 13 11 8 8 10
31 29 31 32 31 33 29 24 22 22 26 26 23 24 23 22 24 26 24 16 9 8 13 15 15 15 15 16 18 10 8 12 18 20 6 7 4 7 6 4 6 8 8
37 32 31 32 32 30 26 20 20 21 23 20 19 21 20 19 16 16 14 9 12 15 15 15 13 13 14 14 12 14 9 13 20 23 19 14 10 12 12 9 9 8 5
37 36 32 30 28 26 22 20 19 19 18 17 18 18 17 14 14 13 8 9 15 18 16 13 10 11 12 11 9 6 7 8 14 21 19 22 19 14 14 13 12 15 14
36 38 32 30 28 24 22 20 18 16 15 14 12 12 12 13 13 11 9 9 12 14 15 12 11 10 9 7 10 9 12 6 14 17 16 17 19 19 16 12 14 16 16
34 35 30 25 20 22 19 18 16 14 13 13 9 5 8 8 8 9 7 8 8 10 11 10 10 12 13 15 16 14 11 12 10 16 14 15 19 22 21 17 16 17 18
34 32 37 36 30 18 15 16 16 13 10 8 7 4 2 2 3 3 4 4 5 6 7 8 9 10 12 15 17 17 15 14 13 16 15 16 19 23 24 25 24 23 21
33 30 30 40 38 31 22 20 15 14 12 9 8 7 6 5 6 7 6 7 7 9 10 11 12 13 14 14 17 17 18 18 19 21 24 25 26 27 29 30 32 33 31
30 30 27 25 30 36 30 26 25 21 17 14 14 12 12 13 11 10 11 11 11 12 13 13 14 16 16 19 20 22 23 26 30 33 36 38 38 40 40 40 40 41 41
36 33 31 28 26 38 37 32 28 24 21 20 19 15 15 16 16 15 15 15 16 16 16 15 15 18 22 27 31 30 38 36 35 41 43 45 50 52 51 52 53 53 51
41 42 38 36 32 32 39 39 33 31 28 27 24 22 17 15 17 19 19 19 20 22 22 22 24 24 30 31 38 40 47 46 48 52 53 53 56 60 62 64 64 64 63
44 43 43 40 38 32 28 31 34 32 29 25 23 21 22 22 18 17 22 23 25 26 25 24 28 37 38 39 45 48 53 58 60 62 65 65 64 69 70 71 73 72 71
41 40 40 45 41 36 33 32 31 33 32 29 27 22 19 20 22 23 23 26 29 32 30 32 36 38 43 45 52 59 58 58 57 64 63 57 64 61 58 66 65 67 68
43 42 40 44 46 44 40 38 36 35 32 30 27 24 25 27 27 28 30 30 32 35 34 35 41 42 47 49 57 61 62 69 60 69 62 53 61 62 60 58 55 61 63
51 48 46 45 47 46 39 32 36 33 31 28 27 27 27 29 31 34 33 33 33 36 39 39 43 45 49 48 53 63 60 59 62 57 69 73 68 63 65 59 63 66 66
59 59 57 52 48 44 34 28 31 35 31 25 21 20 21 23 25 26 25 27 27 29 32 35 37 39 47 49 49 51 58 47 76 62 75 60 70 76 66 72 69 73 70
48 56 64 60 57 42 36 33 29 26 25 21 21 19 15 16 15 17 18 19 20 24 26 30 34 38 41 46 51 50 61 59 69 74 51 86 71 73 78 79 76 74 77
33 41 53 60 58 48 40 32 25 19 20 21 16 12 11 13 15 16 16 16 20 21 26 31 31 31 36 43 44 51 56 65 55 74 92 78 89 83 71 90 70 72 76
23 29 43 51 57 49 48 31 28 22 21 22 20 17 17 15 15 12 18 22 24 24 25 26 31 31 37 41 45 46 51 54 60 65 81 92 93 89 82 68 70 70 75
Wind_Direction_500mb
149 145 141 136 129 128 101 81 72 66 78 79 80 87 87 99 114 121 129 130 121 106 98 88 76 72 83 94 96 92 87 92 93 94 87 79 89 79 83 87 81 85 81
150 151 144 132 129 131 128 112 89 83 82 81 89 89 86 91 102 104 94 107 115 111 89 97 86 83 87 89 90 86 77 74 80 85 86 77 68 76 79 76 78 76 77
157 153 147 144 138 143 131 119 97 85 76 83 92 89 91 88 83 86 91 91 91 91 94 96 94 94 99 96 87 80 78 74 81 98 92 86 83 83 69 80 79 81 84
161 149 149 148 144 138 130 124 107 88 78 84 97 90 89 88 81 78 90 96 93 89 92 95 98 103 116 102 98 93 92 85 76 67 101 103 84 85 86 87 96 96 95
160 146 145 136 133 135 129 127 115 92 80 83 97 103 104 104 84 85 78 97 93 96 91 94 93 95 94 90 91 86 68 62 53 63 77 82 85 85 79 97 87 87 85
151 148 151 141 138 134 129 127 114 85 83 91 98 97 109 109 96 96 81 95 93 92 89 91 88 90 93 96 93 94 78 40 19 61 68 74 73 76 85 91 85 82 89
132 139 144 141 141 136 131 130 122 101 96 95 96 97 101 110 114 94 87 87 91 84 79 79 82 80 85 83 93 102 80 47 31 49 70 87 91 93 92 87 78 88 98
146 146 146 143 142 144 134 137 132 121 110 99 98 98 98 97 109 92 88 91 102 88 84 82 86 85 84 72 93 125 69 36 11 10 46 96 83 85 82 83 80 90 102
157 147 142 137 142 152 147 148 143 123 101 90 88 91 101 103 113 113 114 109 95 100 99 96 83 75 69 71 103 113 55 15 7 14 22 33 68 77 80 37 56 70 99
154 148 147 144 146 149 154 146 124 103 95 99 98 94 98 99 106 118 123 92 64 66 64 67 69 65 59 58 83 117 67 21 358 21 26 14 330 334 332 348 344 8 356
155 153 153 151 150 151 151 143 130 125 122 109 95 92 92 94 95 95 91 55 53 54 54 52 50 49 52 59 57 72 87 9 349 354 10 13 18 358 341 346 344 351 344
171 159 157 161 155 156 159 155 149 144 134 125 117 107 98 85 82 75 68 56 51 47 50 50 36 32 28 49 39 24 19 0 308 346 5 8 3 6 9 355 345 338 331
185 168 170 167 165 160 163 164 163 162 154 146 140 108 79 68 64 59 59 44 38 42 34 32 22 13 3 13 22 28 16 11 349 342 355 0 357 353 351 348 336 327 318
202 192 179 171 178 191 188 183 180 179 185 160 165 176 105 52 15 27 17 18 358 8 5 16 3 8 6 359 358 3 10 10 355 347 349 348 343 339 336 332 330 322 315
203 202 202 184 183 187 194 193 195 191 198 216 214 218 239 254 275 296 306 314 333 332 337 343 345 354 354 348 345 339 338 339 332 328 330 328 326 321 319 317 315 314 313
212 213 212 213 206 194 194 190 191 192 196 220 226 230 245 257 262 273 286 299 306 308 318 333 336 335 332 329 325 322 316 315 319 314 312 310 307 306 306 304 302 302 300
213 221 224 229 216 211 208 213 202 210 212 222 229 244 234 252 262 272 280 287 293 294 294 305 314 320 320 319 317 316 314 308 308 303 300 299 299 300 301 300 298 297 295
210 215 226 233 230 220 228 224 221 219 224 227 233 240 253 261 256 264 274 283 288 293 291 287 289 295 299 307 306 308 303 299 301 297 297 297 297 296 297 297 295 293 291
215 217 224 230 239 239 235 227 222 224 229 231 236 237 243 257 269 275 271 272 278 283 285 291 297 293 296 298 296 296 297 297 298 303 296 300 302 300 298 294 292 290 288
213 222 220 226 234 243 248 248 221 223 231 235 241 244 254 266 268 273 280 284 289 295 305 297 295 295 296 300 300 296 297 299 299 299 300 299 298 302 301 303 298 296 291
206 216 220 219 224 234 239 244 222 225 230 236 242 250 262 271 274 283 289 285 286 289 289 287 291 295 298 300 301 304 301 304 300 304 307 303 301 299 300 299 300 300 295
207 205 208 224 231 237 242 248 231 228 233 242 249 254 258 267 274 278 280 278 278 280 283 289 294 299 296 302 304 306 313 305 318 310 312 309 310 307 304 301 301 299 298
215 215 210 213 223 236 241 233 225 224 234 242 248 253 258 265 268 278 277 278 279 282 281 286 293 295 302 302 304 306 301 306 311 314 314 306 308 309 304 306 303 303 297
217 216 215 214 222 216 218 223 226 220 229 236 243 249 254 263 272 278 280 286 298 298 298 294 293 295 300 302 304 301 301 307 310 310 302 306 304 308 300 306 302 303 303
218 215 212 210 215 213 203 210 217 210 213 217 219 222 220 228 244 262 274 277 274 273 276 288 285 293 298 295 311 313 305 306 307 300 306 305 303 310 301 305 300 297 299
194 193 199 202 201 208 202 190 194 190 169 185 188 199 206 220 231 250 259 274 279 290 297 304 305 301 299 295 293 294 296 301 307 300 300 301 302 304 303 303 298 300 306
Wind_Speed_850mb
25 27 26 27 26 21 22 19 17 18 23 20 22 23 22 21 22 20 20 21 20 19 17 20 22 24 26 26 25 26 24 23 23 24 23 15 14 14 11 12 16 23 23
37 31 28 27 26 25 24 22 19 22 24 22 23 24 29 31 26 21 23 20 14 12 24 23 29 34 40 35 32 30 28 27 25 28 23 22 23 26 18 25 28 29 25
33 32 29 27 27 26 23 24 24 25 23 22 25 29 33 34 35 33 32 35 34 36 37 34 32 35 37 36 37 29 25 21 20 27 28 24 27 24 26 32 31 33 32
30 34 30 27 29 31 27 26 25 24 22 20 26 34 36 33 29 32 33 34 38 35 33 32 33 32 33 30 30 26 21 17 21 16 20 21 21 22 25 23 22 22 23
33 34 31 31 30 29 28 28 22 19 21 19 26 30 38 33 26 33 31 31 36 26 30 30 26 25 22 25 29 23 18 18 14 11 20 24 16 23 20 20 25 25 23
39 31 30 26 28 32 29 28 20 17 20 21 25 27 31 29 31 27 27 33 31 24 25 24 23 24 24 23 25 15 17 13 17 15 16 22 23 19 23 21 17 17 23
33 30 29 28 30 31 29 29 18 15 19 25 23 26 25 25 26 25 31 32 23 17 22 22 21 20 22 20 17 12 7 11 18 11 13 18 12 13 17 18 14 17 17
31 35 35 34 33 33 31 26 19 19 21 25 23 24 24 23 24 29 26 24 17 15 17 19 19 18 17 17 19 15 9 13 19 18 8 7 8 11 13 11 8 8 10
31 29 31 32 31 33 29 24 22 22 26 26 23 24 23 22 24 26 24 16 9 8 13 15 15 15 15 16 18 10 8 12 18 20 6 7 4 7 6 4 6 8 8
37 32 31 32 32 30 26 20 20 21 23 20 19 21 20 19 16 16 14 9 12 15 15 15 13 13 14 14 12 14 9 13 20 23 19 14 10 12 12 9 9 8 5
37 36 32 30 28 26 22 20 19 19 18 17 18 18 17 14 14 13 8 9 15 18 16 13 10 11 12 11 9 6 7 8 14 21 19 22 19 14 14 13 12 15 14
36 38 32 30 28 24 22 20 18 16 15 14 12 12 12 13 13 11 9 9 12 14 15 12 11 10 9 7 10 9 12 6 14 17 16 17 19 19 16 12 14 16 16
34 35 30 25 20 22 19 18 16 14 13 13 9 5 8 8 8 9 7 8 8 10 11 10 10 12 13 15 16 14 11 12 10 16 14 15 19 22 21 17 16 17 18
34 32 37 36 30 18 15 16 16 13 10 8 7 4 2 2 3 3 4 4 5 6 7 8 9 10 12 15 17 17 15 14 13 16 15 16 19 23 24 25 24 23 21
33 30 30 40 38 31 22 20 15 14 12 9 8 7 6 5 6 7 6 7 7 9 10 11 12 13 14 14 17 17 18 18 19 21 24 25 26 27 29 30 32 33 31
30 30 27 25 30 36 30 26 25 21 17 14 14 12 12 13 11 10 11 11 11 12 13 13 14 16 16 19 20 22 23 26 30 33 36 38 38 40 40 40 40 41 41
36 33 31 28 26 38 37 32 28 24 21 20 19 15 15 16 16 15 15 15 16 16 16 15 15 18 22 27 31 30 38 36 35 41 43 45 50 52 51 52 53 53 51
41 42 38 36 32 32 39 39 33 31 28 27 24 22 17 15 17 19 19 19 20 22 22 22 24 24 30 31 38 40 47 46 48 52 53 53 56 60 62 64 64 64 63
44 43 43 40 38 32 28 31 34 32 29 25 23 21 22 22 18 17 22 23 25 26 25 24 28 37 38 39 45 48 53 58 60 62 65 65 64 69 70 71 73 72 71
41 40 40 45 41 36 33 32 31 33 32 29 27 22 19 20 22 23 23 26 29 32 30 32 36 38 43 45 52 59 58 58 57 64 63 57 64 61 58 66 65 67 68
43 42 40 44 46 44 40 38 36 35 32 30 27 24 25 27 27 28 30 30 32 35 34 35 41 42 47 49 57 61 62 69 60 69 62 53 61 62 60 58 55 61 63
51 48 46 45 47 46 39 32 36 33 31 28 27 27 27 29 31 34 33 33 33 36 39 39 43 45 49 48 53 63 60 59 62 57 69 73 68 63 65 59 63 66 66
59 59 57 52 48 44 34 28 31 35 31 25 21 20 21 23 25 26 25 27 27 29 32 35 37 39 47 49 49 51 58 47 76 62 75 60 70 76 66 72 69 73 70
48 56 64 60 57 42 36 33 29 26 25 21 21 19 15 16 15 17 18 19 20 24 26 30 34 38 41 46 51 50 61 59 69 74 51 86 71 73 78 79 76 74 77
33 41 53 60 58 48 40 32 25 19 20 21 16 12 11 13 15 16 16 16 20 21 26 31 31 31 36 43 44 51 56 65 55 74 92 78 89 83 71 90 70 72 76
23 29 43 51 57 49 48 31 28 22 21 22 20 17 17 15 15 12 18 22 24 24 25 26 31 31 37 41 45 46 51 54 60 65 81 92 93 89 82 68 70 70 75
Wind_Direction_850mb
149 145 141 136 129 128 101 81 72 66 78 79 80 87 87 99 114 121 129 130 121 106 98 88 76 72 83 94 96 92 87 92 93 94 87 79 89 79 83 87 81 85 81
150 151 144 132 129 131 128 112 89 83 82 81 89 89 86 91 102 104 94 107 115 111 89 97 86 83 87 89 90 86 77 74 80 85 86 77 68 76 79 76 78 76 77
157 153 147 144 138 143 131 119 97 85 76 83 92 89 91 88 83 86 91 91 91 91 94 96 94 94 99 96 87 80 78 74 81 98 92 86 83 83 69 80 79 81 84
161 149 149 148 144 138 130 124 107 88 78 84 97 90 89 88 81 78 90 96 93 89 92 95 98 103 116 102 98 93 92 85 76 67 101 103 84 85 86 87 96 96 95
160 146 145 136 133 135 129 127 115 92 80 83 97 103 104 104 84 85 78 97 93 96 91 94 93 95 94 90 91 86 68 62 53 63 77 82 85 85 79 97 87 87 85
151 148 151 141 138 134 129 127 114 85 83 91 98 97 109 109 96 96 81 95 93 92 89 91 88 90 93 96 93 94 78 40 19 61 68 74 73 76 85 91 85 82 89
132 139 144 141 141 136 131 130 122 101 96 95 96 97 101 110 114 94 87 87 91 84 79 79 82 80 85 83 93 102 80 47 31 49 70 87 91 93 92 87 78 88 98
146 146 146 143 142 144 134 137 132 121 110 99 98 98 98 97 109 92 88 91 102 88 84 82 86 85 84 72 93 125 69 36 11 10 46 96 83 85 82 83 80 90 102
157 147 142 137 142 152 147 148 143 123 101 90 88 91 101 103 113 113 114 109 95 100 99 96 83 75 69 71 103 113 55 15 7 14 22 33 68 77 80 37 56 70 99
154 148 147 144 146 149 154 146 124 103 95 99 98 94 98 99 106 118 123 92 64 66 64 67 69 65 59 58 83 117 67 21 358 21 26 14 330 334 332 348 344 8 356
155 153 153 151 150 151 151 143 130 125 122 109 95 92 92 94 95 95 91 55 53 54 54 52 50 49 52 59 57 72 87 9 349 354 10 13 18 358 341 346 344 351 344
171 159 157 161 155 156 159 155 149 144 134 125 117 107 98 85 82 75 68 56 51 47 50 50 36 32 28 49 39 24 19 0 308 346 5 8 3 6 9 355 345 338 331
185 168 170 167 165 160 163 164 163 162 154 146 140 108 79 68 64 59 59 44 38 42 34 32 22 13 3 13 22 28 16 11 349 342 355 0 357 353 351 348 336 327 318
202 192 179 171 178 191 188 183 180 179 185 160 165 176 105 52 15 27 17 18 358 8 5 16 3 8 6 359 358 3 10 10 355 347 349 348 343 339 336 332 330 322 315
203 202 202 184 183 187 194 193 195 191 198 216 214 218 239 254 275 296 306 314 333 332 337 343 345 354 354 348 345 339 338 339 332 328 330 328 326 321 319 317 315 314 313
212 213 212 213 206 194 194 190 191 192 196 220 226 230 245 257 262 273 286 299 306 308 318 333 336 335 332 329 325 322 316 315 319 314 312 310 307 306 306 304 302 302 300
213 221 224 229 216 211 208 213 202 210 212 222 229 244 234 252 262 272 280 287 293 294 294 305 314 320 320 319 317 316 314 308 308 303 300 299 299 300 301 300 298 297 295
210 215 226 233 230 220 228 224 221 219 224 227 233 240 253 261 256 264 274 283 288 293 291 287 289 295 299 307 306 308 303 299 301 297 297 297 297 296 297 297 295 293 291
215 217 224 230 239 239 235 227 222 224 229 231 236 237 243 257 269 275 271 272 278 283 285 291 297 293 296 298 296 296 297 297 298 303 296 300 302 300 298 294 292 290 288
213 222 220 226 234 243 248 248 221 223 231 235 241 244 254 266 268 273 280 284 289 295 305 297 295 295 296 300 300 296 297 299 299 299 300 299 298 302 301 303 298 296 291
206 216 220 219 224 234 239 244 222 225 230 236 242 250 262 271 274 283 289 285 286 289 289 287 291 295 298 300 301 304 301 304 300 304 307 303 301 299 300 299 300 300 295
207 205 208 224 231 237 242 248 231 228 233 242 249 254 258 267 274 278 280 278 278 280 283 289 294 299 296 302 304 306 313 305 318 310 312 309 310 307 304 301 301 299 298
215 215 210 213 223 236 241 233 225 224 234 242 248 253 258 265 268 278 277 278 279 282 281 286 293 295 302 302 304 306 301 306 311 314 314 306 308 309 304 306 303 303 297
217 216 215 214 222 216 218 223 226 220 229 236 243 249 254 263 272 278 280 286 298 298 298 294 293 295 300 302 304 301 301 307 310 310 302 306 304 308 300 306 302 303 303
218 215 212 210 215 213 203 210 217 210 213 217 219 222 220 228 244 262 274 277 274 273 276 288 285 293 298 295 311 313 305 306 307 300 306 305 303 310 301 305 300 297 299
194 193 199 202 201 208 202 190 194 190 169 185 188 199 206 220 231 250 259 274 279 290 297 304 305 301 299 295 293 294 296 301 307 300 300 301 302 304 303 303 298 300 306